Regional Weather Roundup
Issued by NWS Little Rock, AR

Home | Current Version | Previous Version | Text Only | Print | Product List | Glossary Off
Versions: 1 2 3 4 5 6 7 8 9 10 11 12 13 14 15 16 17 18 19 20 21 22 23 24 25 26 27 28 29 30 31 32 33 34 35 36 37 38 39 40 41 42 43 44 45 46 47 48

000
ASUS44 KLZK 032305
RWRLZK

WEATHER ROUNDUP FOR ARKANSAS
NATIONAL WEATHER SERVICE LITTLE ROCK AR
600 PM CDT FRI JUL 03 2015

NOTE: "FAIR" INDICATES FEW OR NO CLOUDS BELOW 12,000 FEET WITH NO
SIGNIFICANT WEATHER AND/OR OBSTRUCTIONS TO VISIBILITY.

ARZ001-003-010-029-040000-
NORTHWEST ARKANSAS

CITY           SKY/WX    TMP DP  RH WIND       PRES   REMARKS
FAYETTEVILLE   PTSUNNY   83  71  67 W7        29.89S HX  87
FORT SMITH     PTSUNNY   86  72  62 SW10      29.85S HX  92
HARRISON       HVY RAIN  72  70  93 W6        29.92R FOG
BENTONVILLE    PTSUNNY   75  66  73 NE6       29.92S
ROGERS         CLOUDY    74  70  87 N3        29.92F
SILOAM SPGS    PTSUNNY   79  66  65 N3          N/A
HIGHFILL       PTSUNNY   75  70  84 N8        29.90F
SPRINGDALE     PTSUNNY   73  70  88 NE3       29.92R
$$

ARZ004-005-016-040000-
NORTH CENTRAL ARKANSAS

CITY           SKY/WX    TMP DP  RH WIND       PRES   REMARKS
BATESVILLE     CLOUDY    72  68  88 SW6       29.88F
FLIPPIN        CLOUDY    73  70  88 NE3       29.87R
MTN HOME       PTSUNNY   71  69  93 CALM      29.89S THUNDER
$$

ARZ040-041-040000-
WEST CENTRAL ARKANSAS

CITY           SKY/WX    TMP DP  RH WIND       PRES   REMARKS
MENA           MOSUNNY   86  75  70 SW7       29.92F HX  95
MOUNT IDA      MOSUNNY   83  73  72 VRB7      29.89S HX  89
$$

ARZ009-017-025-026-028-040000-
NORTHEAST ARKANSAS

CITY           SKY/WX    TMP DP  RH WIND       PRES   REMARKS
JONESBORO      LGT RAIN  75  71  87 SW8       29.87S
NEWPORT        LGT RAIN  77  74  90 S10       29.87F
WALNUT RIDGE   PTSUNNY   75  70  83 SW10      29.86S
BLYTHEVILLE    PTSUNNY   78  72  81 SW7       29.87R
$$

ARZ022-023-033-042-044-040000-
CENTRAL ARKANSAS

CITY           SKY/WX    TMP DP  RH WIND       PRES   REMARKS
LITTLE ROCK    PTSUNNY   77  70  79 SW10      29.90F
N LITTLE ROCK  MOSUNNY   76  72  88 SW8G16    29.90
JACKSONVILLE   MOSUNNY   78  71  78 SW13      29.88F
SEARCY         PTSUNNY   80  72  76 S9        29.89F
HOT SPRINGS    PTSUNNY   80  75  84 S6        29.90F HX  85
RUSSELLVILLE   MOSUNNY   83  74  74 S7        29.85F HX  89
CLINTON        PTSUNNY   75  72  88 N3        29.88F
$$

ARZ036-040000-
EAST ARKANSAS

CITY           SKY/WX    TMP DP  RH WIND       PRES   REMARKS
WEST MEMPHIS   CLOUDY    76  74  93 SW9       29.88F
$$

ARZ050-053-066-070-073-040000-
SOUTHWEST ARKANSAS

CITY           SKY/WX    TMP DP  RH WIND       PRES   REMARKS
ARKADELPHIA    FAIR      84  77  80 SW13      29.90F HX  93
CAMDEN         CLOUDY    81  73  78 MISG      29.93F HX  85
TEXARKANA      PTSUNNY   82  77  84 SW9       29.93F HX  90
EL DORADO      CLOUDY    81  75  82 SW6       29.94F HX  87
DE QUEEN       MOSUNNY   85  74  69 SW12      29.88F HX  92
$$

ARZ056-057-069-040000-
SOUTHEAST ARKANSAS

CITY           SKY/WX    TMP DP  RH WIND       PRES   REMARKS
PINE BLUFF     LGT RAIN  74  71  91 SW8       29.93F
STUTTGART      CLOUDY    73  70  88 SW9       29.90S
MONTICELLO     CLOUDY    75  74  96 SE3       29.95F

$$




USA.gov is the U.S. government's official web portal to all federal, state and local government web resources and services.